{"data":{"norad_id":61526,"epoch":"2026-09-21T10:46:08.106816Z","epoch_age_seconds":110142,"freshness":"FRESH","line1":"1 61526U 24183T   26264.44870494  .00001342  00000+0  50866-4 0  9996","line2":"2 61526  53.1603 311.0570 0001175  73.0482 287.0649 15.34382313109655","mean_motion":15.34382313,"eccentricity":0.0001175,"inclination_deg":53.1603,"raan_deg":311.057,"arg_perigee_deg":73.0482,"mean_anomaly_deg":287.0649,"bstar":5.0866e-5,"rev_number":10965,"period_min":93.84883987515,"perigee_km":461.95200529825,"apogee_km":463.55961510865,"semimajor_km":6840.8928102034,"source":"CELESTRAK","updated_at":"2026-09-22T09:00:49.358835Z"}}